Location: Holyhead Bay
(53.3667°N, 4.6667°W)
Time: 04:42:54
(UTC+00:00)

AISSAT 1 - Visible Passes

Search period start: 15 June 2021 00:00
Search period end: 25 June 2021 00:00
Orbit: 602 x 615 km, 98.2° (Epoch: 14 June)

Date Brightness Start Highest point End Pass type
(mag) Time Alt. Az. Time Alt. Az. Time Alt. Az.
15 Jun ? 02:48:53 10° ESE 02:52:10 22° ENE 02:55:27 10° N visible
19 Jun ? 02:10:48 10° ENE 02:12:03 11° NE 02:13:18 10° NNE visible
20 Jun ? 02:23:27 10° E 02:25:39 14° NE 02:27:52 10° NNE visible
21 Jun ? 02:36:28 10° E 02:39:17 17° NE 02:42:07 10° NNE visible
22 Jun ? 02:49:40 10° ESE 02:52:56 22° ENE 02:56:14 10° N visible
